CAPE
0 0 0 0 0 0 0 0 0 0 0 0 0 0 0 0 0 0 0 4 46 44 20 8 0 3 3 1 1 5 23 28 30 17 20 24 25 51
0 0 0 0 0 0 0 0 0 0 0 0 0 0 0 0 0 0 0 4 13 19 0 2 10 16 13 6 4 0 5 19 32 29 27 24 44 39
0 0 0 0 0 0 0 0 0 0 0 0 0 0 0 0 0 0 0 0 0 13 18 31 45 42 21 13 7 6 1 1 5 16 21 25 29 22
0 0 0 0 0 0 0 0 0 0 0 0 0 0 0 0 0 0 0 0 0 0 0 15 47 39 56 47 38 34 22 5 0 0 4 13 21 19
0 0 0 0 0 0 0 0 0 0 0 0 0 0 0 0 0 0 0 0 0 0 0 4 0 1 43 71 80 74 64 22 0 0 0 0 1 2
0 0 0 0 0 0 0 0 0 0 0 0 0 0 0 0 0 0 0 0 0 0 0 0 0 0 3 23 70 58 41 28 54 21 2 1 0 0
0 0 0 0 0 0 0 0 0 0 0 0 0 0 0 0 0 0 0 0 0 0 0 0 0 0 0 0 5 32 22 41 59 19 11 2 0 0
0 0 0 0 0 0 0 0 0 0 0 0 0 0 0 0 0 0 0 0 0 0 0 0 0 0 0 0 0 40 42 42 37 12 2 1 0 0
0 0 0 0 0 0 0 0 0 0 0 0 0 0 0 0 0 0 0 0 0 0 0 0 0 0 0 0 0 0 46 48 51 39 27 8 0 0
0 0 0 0 0 0 0 0 0 0 0 0 0 0 0 0 0 0 0 0 0 0 0 0 0 0 0 0 0 0 4 8 12 33 37 20 0 0
0 0 0 0 0 0 0 0 0 0 0 0 0 0 0 2 0 0 0 0 0 0 0 0 0 0 0 0 0 0 0 0 0 0 0 21 4 0
0 0 0 0 0 0 0 0 0 0 0 0 0 0 0 0 0 0 0 0 0 0 0 0 0 0 0 0 0 0 0 0 0 0 0 0 22 0
0 0 0 0 0 0 0 0 0 0 0 0 0 0 0 0 0 0 0 0 0 0 0 0 0 0 0 0 0 0 0 0 0 0 0 0 28 12
0 0 0 0 0 0 0 0 0 0 0 0 0 0 0 0 0 0 0 0 0 0 0 0 0 0 1 0 0 0 0 0 0 0 0 0 0 0
0 0 0 0 0 0 0 5 0 0 0 0 0 0 0 0 0 0 0 0 0 0 0 0 0 0 0 0 0 0 0 0 0 0 0 0 0 0
0 0 0 0 0 0 0 0 0 1 0 0 0 0 0 0 0 0 0 0 0 0 0 0 0 0 0 0 0 0 0 0 0 0 0 0 0 0
0 0 0 0 0 0 0 0 0 0 0 0 0 0 0 0 0 0 0 0 0 0 0 0 0 0 0 0 0 0 0 0 0 0 0 0 0 0
0 0 0 0 0 0 0 0 0 0 0 0 0 0 0 0 0 0 0 0 0 0 0 0 0 0 0 0 0 0 0 0 0 0 0 0 0 0
0 0 0 0 0 0 0 0 0 0 0 0 0 0 1 0 0 1 0 0 0 0 0 0 0 0 0 0 0 0 0 0 0 0 0 0 0 0
0 0 0 0 0 0 0 0 0 0 0 0 0 0 0 1 0 0 0 1 0 0 0 0 0 0 0 0 0 0 0 0 0 0 0 0 0 0
0 0 0 0 0 0 0 0 0 0 0 0 0 0 0 0 0 0 0 0 0 1 0 0 0 0 0 0 0 0 0 0 0 0 0 0 0 0
0 0 0 0 0 0 0 0 0 0 0 0 0 0 0 0 0 0 0 0 0 1 0 0 0 0 0 0 0 0 0 0 0 0 0 0 0 0
0 0 0 0 0 0 0 0 0 0 0 0 0 0 0 0 0 0 0 0 0 0 0 0 0 0 0 0 0 0 0 0 0 0 0 0 0 0
CIN
0 0 0 0 0 0 0 0 0 0 0 0 0 0 0 0 0 0 0 -8 -4 -7 -8 -8 -5 -4 -2 -1 0 0 0 0 0 0 0 0 0 0
0 0 0 0 0 0 0 0 0 0 0 0 0 0 0 0 -2 0 0 -16 -13 -12 0 -13 -5 -4 -3 -5 -4 -1 0 0 0 0 0 0 0 0
0 0 0 0 0 0 0 0 0 0 0 0 0 0 0 0 0 0 0 0 0 -8 -5 -5 -1 -1 -5 -7 -7 -8 -3 0 0 0 0 0 0 0
0 0 0 0 0 0 0 0 0 0 0 0 0 0 0 0 0 0 0 0 0 0 0 -1 0 -1 -1 -4 -8 -8 -8 -5 0 0 0 0 0 0
0 0 0 0 0 0 0 0 0 0 0 0 0 0 0 0 0 0 0 0 0 0 0 0 0 -3 -2 -2 -1 -2 -3 -4 -2 0 0 0 0 0
0 0 0 0 0 0 0 0 0 0 0 0 0 0 0 0 0 0 0 0 0 0 0 0 0 -4 -15 -8 -4 -7 -10 -11 -9 -4 -3 -3 0 0
0 0 0 0 0 0 0 0 0 0 0 0 0 0 0 0 0 0 0 0 0 0 0 0 0 0 0 -1 -2 -1 -1 -9 -7 -14 -13 -8 0 0
0 0 0 0 0 0 0 0 0 0 0 0 0 0 0 0 0 0 0 0 0 0 0 0 0 0 0 0 -5 -5 -3 -6 -11 -25 -30 -17 0 0
0 0 0 0 0 0 0 0 0 0 0 0 0 0 0 0 0 0 0 0 0 0 0 0 0 0 0 0 0 0 -3 -6 -6 -25 -27 -34 0 0
0 0 0 0 0 0 0 0 0 0 0 0 0 0 0 0 0 0 0 0 0 0 0 0 0 0 0 0 0 0 -4 -5 -13 -8 -11 -35 -25 0
0 0 0 0 0 0 0 0 0 0 0 0 0 0 0 -1 0 0 0 0 0 0 0 0 0 0 0 0 0 0 0 0 0 0 0 -24 -51 0
0 0 0 0 0 0 0 0 0 0 0 0 0 0 0 0 0 0 0 0 0 0 0 0 0 0 -1 0 0 0 0 0 0 0 0 0 -34 0
0 0 0 0 0 0 0 0 0 0 0 0 0 0 0 0 0 0 0 0 0 -1 0 -3 0 0 0 -1 0 0 0 0 0 0 0 0 -4 -4
0 0 0 0 0 0 0 0 0 0 0 0 0 0 0 0 0 0 0 0 0 0 0 0 0 0 -4 -2 0 0 0 0 0 0 0 0 0 0
0 0 0 0 0 0 0 -5 -1 0 0 0 0 0 0 0 0 0 0 0 0 0 0 0 0 -1 -2 -1 0 0 0 0 0 0 0 0 0 0
0 0 0 0 0 0 0 0 -1 -16 0 0 0 0 0 0 0 0 0 0 0 0 0 0 0 0 0 0 0 0 0 0 0 0 0 0 0 0
0 0 0 0 0 0 0 0 0 0 0 0 0 0 0 0 0 0 0 0 0 0 0 0 0 0 0 0 0 0 0 0 0 0 0 0 0 0
0 0 0 0 0 0 0 0 0 0 0 0 0 0 0 0 0 0 0 0 0 0 0 0 0 0 0 0 0 0 0 0 0 0 0 0 0 0
0 0 0 0 0 0 0 0 0 0 0 0 0 0 -1 0 0 -1 0 0 0 0 0 0 0 0 0 0 0 0 0 0 0 0 0 0 0 0
0 0 0 0 0 0 0 0 0 0 0 0 0 0 0 0 0 0 0 -1 -1 0 0 0 0 0 -1 -1 -1 0 0 0 0 0 0 0 0 0
0 0 0 0 0 0 0 0 0 0 0 0 0 0 0 0 0 0 0 0 0 0 -1 0 0 0 0 0 0 0 0 0 0 0 0 0 0 -1
0 0 0 0 0 0 0 0 0 0 0 0 0 0 0 0 0 0 0 0 0 0 -1 0 0 0 0 0 -1 0 0 0 0 0 0 0 0 0
0 0 0 0 0 0 0 0 0 0 0 0 0 0 0 0 0 0 0 0 0 0 0 0 0 0 0 0 0 0 0 0 0 0 0 0 0 0
Wind_Speed
3 4 3 2 4 3 2 1 3 2 3 3 3 5 4 4 7 2 3 9 12 10 7 6 8 11 12 14 15 16 17 17 15 15 15 15 16 14
3 4 3 2 4 4 4 3 2 1 1 1 3 4 5 8 9 5 5 9 10 9 3 6 13 15 13 14 13 13 14 16 17 16 16 16 14 14
4 5 4 4 5 4 4 4 4 4 2 3 2 5 6 8 6 5 5 5 5 14 14 16 17 12 12 15 14 13 13 12 14 16 15 15 15 13
4 5 4 6 5 5 4 5 4 4 3 5 3 5 4 6 5 5 6 7 6 15 17 17 16 18 15 14 16 15 14 11 10 12 13 14 15 13
5 3 3 5 4 3 3 4 3 5 3 3 5 2 3 3 4 4 6 5 7 17 16 17 19 19 19 19 15 16 15 8 8 11 12 13 13 12
5 5 5 5 5 3 2 3 4 4 3 3 4 5 3 3 2 4 6 3 5 8 11 14 16 19 21 20 18 6 4 5 11 12 12 13 11 13
1 1 5 6 7 4 2 2 4 3 3 5 6 4 3 3 3 3 3 5 5 3 3 6 6 6 8 14 13 13 7 9 12 12 13 13 12 12
3 3 4 7 3 3 0 4 4 3 5 3 5 4 3 4 3 3 2 5 6 3 6 4 4 5 6 7 19 18 15 12 14 15 14 13 14 12
3 2 6 6 6 4 6 8 9 12 6 2 4 3 5 6 6 3 3 2 4 8 4 6 3 6 5 8 17 20 15 19 15 16 16 15 14 12
3 2 8 5 4 3 3 4 5 5 5 6 4 5 6 10 9 8 4 3 4 4 4 5 3 4 6 6 15 16 17 18 20 17 16 16 14 11
6 8 7 5 5 7 4 5 6 5 10 16 15 16 17 15 16 4 4 5 5 4 3 4 3 6 6 4 4 17 18 17 18 20 21 18 14 12
5 6 10 5 3 4 2 4 4 4 6 8 9 10 9 8 9 5 3 4 5 3 2 4 4 4 5 3 8 4 5 12 18 18 19 21 14 3
3 3 2 6 3 5 4 3 3 5 6 5 5 4 4 4 4 4 4 2 2 4 7 5 4 3 2 6 3 4 4 8 6 8 15 18 9 3
3 3 2 8 7 7 6 5 8 4 3 3 3 3 4 4 5 5 6 5 4 7 9 7 4 6 5 6 7 3 6 6 4 5 5 12 13 5
3 4 7 8 7 5 7 9 4 1 1 2 3 4 4 6 5 5 5 6 6 7 8 7 5 6 4 6 7 7 7 5 6 3 7 6 3 3
3 3 3 6 5 4 3 3 2 1 1 1 2 3 3 3 3 3 4 6 5 5 7 6 6 6 4 6 6 8 7 4 6 5 4 4 4 4
1 1 2 3 2 3 3 2 2 3 2 2 2 3 3 3 3 3 3 3 2 5 6 7 9 8 7 9 7 6 5 4 4 6 5 6 5 6
2 1 2 1 1 2 2 1 2 2 2 2 1 4 4 4 5 5 3 2 3 4 7 7 8 8 7 7 7 3 5 4 6 5 4 5 6 5
2 2 2 2 1 1 1 2 1 1 1 2 3 3 5 5 6 6 7 6 6 5 7 7 5 6 8 10 9 7 6 8 7 6 5 4 8 9
3 2 2 2 1 1 1 1 1 2 2 2 2 3 4 5 6 6 7 7 7 8 7 7 6 7 8 9 10 12 14 6 5 7 6 5 7 16
3 2 2 2 2 1 1 1 2 2 1 2 2 3 4 5 6 6 7 8 8 8 8 8 9 13 8 8 7 7 9 14 11 7 6 6 5 6
2 3 2 2 2 2 2 2 2 2 2 2 3 2 3 5 5 7 6 7 8 8 8 8 10 9 8 7 9 11 9 9 11 13 13 11 4 3
3 3 3 3 3 3 3 3 2 2 3 4 3 3 3 4 6 6 7 8 8 8 8 8 9 8 8 7 8 8 11 10 4 5 6 10 10 12
Wind_Direction
87 63 64 20 24 0 356 54 151 292 303 322 339 323 337 335 316 320 316 333 326 3 13 357 330 307 311 325 332 321 307 304 307 310 311 310 309 324
74 63 50 28 18 357 342 1 26 165 276 279 323 311 323 328 309 350 316 343 12 357 344 314 312 304 308 309 323 328 319 308 306 306 307 307 314 323
56 53 51 65 39 27 16 10 16 31 7 308 302 320 330 329 332 336 346 34 355 359 355 351 351 327 289 292 304 307 310 312 309 302 300 301 305 309
77 54 48 66 53 36 19 11 25 26 31 331 310 327 331 332 334 13 9 15 351 347 345 344 339 344 327 282 287 289 288 295 309 312 299 299 302 307
120 98 100 100 60 33 8 16 19 0 347 356 321 299 294 339 348 2 7 346 342 340 342 336 344 337 334 328 310 290 282 254 280 291 296 290 284 287
163 191 164 156 144 125 62 21 5 347 341 339 317 314 314 322 7 352 340 320 326 328 337 344 333 330 332 325 318 17 33 267 263 263 272 279 282 285
208 201 154 185 150 139 106 346 324 309 307 304 294 297 310 330 333 293 322 316 317 299 323 323 324 322 326 330 2 335 275 264 268 266 265 275 284 288
103 33 23 108 99 155 4 344 303 302 302 286 294 273 295 295 290 283 294 333 334 309 329 306 329 321 321 335 333 336 323 279 268 266 265 268 274 278
156 153 112 99 78 63 15 348 335 334 352 344 359 335 307 293 292 270 274 269 296 306 311 323 317 320 310 321 323 327 341 342 325 260 261 260 268 271
307 84 114 103 84 62 9 339 329 325 352 1 339 293 281 291 277 271 248 287 299 294 313 304 310 304 304 293 313 329 342 345 338 334 295 264 258 264
62 87 101 101 57 32 16 348 335 331 342 338 335 326 327 16 31 36 10 335 322 301 290 326 311 308 298 299 338 340 344 336 336 335 329 313 260 254
94 93 98 99 48 20 33 341 323 320 331 331 330 332 343 14 25 19 336 323 318 316 299 324 308 335 318 298 332 316 318 325 331 330 330 326 299 242
88 136 91 32 26 4 358 306 279 320 318 310 310 324 344 345 337 327 308 249 276 298 296 319 305 300 234 297 292 298 309 315 313 317 319 318 338 267
66 125 262 352 344 333 337 276 307 316 303 313 342 342 334 324 315 317 312 312 293 293 300 298 286 297 298 300 302 300 306 292 281 293 307 320 313 344
84 21 339 328 327 319 306 316 322 302 309 15 356 343 317 312 314 320 317 313 311 306 310 302 297 304 287 295 297 304 320 305 306 316 316 312 300 323
49 325 296 290 251 233 282 320 326 6 47 12 310 273 303 324 312 316 316 321 315 314 321 306 312 319 302 294 292 294 302 303 309 308 302 296 303 295
134 24 357 352 357 332 324 335 23 39 39 323 323 326 316 311 293 302 296 306 314 319 325 325 324 313 294 286 296 280 277 273 272 289 304 294 283 272
63 49 321 280 252 281 299 6 52 50 330 331 325 333 325 321 323 323 315 320 317 312 321 319 321 323 327 316 293 289 292 268 287 280 276 289 290 277
181 241 223 201 249 310 79 126 148 287 329 8 338 325 334 333 332 340 338 332 329 322 316 312 318 327 327 321 309 294 292 290 289 285 266 249 280 288
197 217 190 116 74 78 83 71 352 15 18 358 330 330 341 349 343 338 330 330 327 324 322 324 325 326 319 311 308 300 300 280 275 281 282 263 255 270
178 174 127 118 100 77 43 57 70 32 22 7 338 340 11 351 329 326 324 319 317 322 322 321 313 306 300 298 309 309 303 306 277 265 280 278 278 292
116 111 101 98 80 72 67 69 47 27 352 3 6 13 353 338 323 324 318 319 317 315 312 307 316 319 319 312 305 306 304 313 311 282 271 254 262 284
118 108 88 79 77 72 68 55 33 356 23 54 27 345 330 332 325 317 314 311 307 310 309 317 318 318 309 299 295 301 308 311 294 317 315 291 291 257